Regional Weather Roundup
Issued by NWS Charleston, WV

Home | Current Version | Previous Version | Graphics & Text | Print | Product List | Glossary On
Versions: 1 2 3 4 5 6 7 8 9 10 11 12 13 14 15 16 17 18 19 20 21 22 23 24 25 26 27 28
000
ASUS41 KRLX 221710
RWRRLX
West Virginia Regional Weather Roundup
National Weather Service Charleston WV
1200 PM EST MON JAN 22 2018

Note: "fair" indicates few or no clouds below 12,000 feet with no
significant weather and/or obstructions to visibility.

WVZ003-221800-
Northern Panhandle of West Virginia

CITY           SKY/WX    TMP DP  RH WIND       PRES   REMARKS
WHEELING       CLOUDY    60  45  57 S14G21    29.94F
$$

WVZ009-221800-
Northwest West Virginia

CITY           SKY/WX    TMP DP  RH WIND       PRES   REMARKS
PARKERSBURG      N/A     62  45  53 S8        29.96F
$$

WVZ006-221800-
Western West Virginia

CITY           SKY/WX    TMP DP  RH WIND       PRES   REMARKS
HUNTINGTON       N/A     64  42  44 S10G22    29.92F
$$

WVZ015-221800-
West Central West Virginia

CITY           SKY/WX    TMP DP  RH WIND       PRES   REMARKS
CHARLESTON     PTSUNNY   66  44  45 S8        29.95F
$$

WVZ022-031-221800-
North Central West Virginia

CITY           SKY/WX    TMP DP  RH WIND       PRES   REMARKS
CLARKSBURG       N/A     65  46  50 S8        29.98F
MORGANTOWN     PTSUNNY   62  45  53 S10       29.99F
$$

WVZ025-035-042-045-221800-
Southern West Virginia

CITY           SKY/WX    TMP DP  RH WIND       PRES   REMARKS
BECKLEY          N/A     57  41  55 SE10G20   30.03F
LOGAN            N/A     61  41  48 S8G21     29.97F
BLUEFIELD        N/A     54  37  52 S13G22    30.08F
LEWISBURG        N/A     48  45  88 NE5       30.10F
$$

WVZ047-221800-
Northern Mountains of West Virginia

CITY           SKY/WX    TMP DP  RH WIND       PRES   REMARKS
ELKINS           N/A     58  43  57 CALM      30.03F
$$

WVZ052-221800-
Eastern Panhandle of West Virginia

CITY           SKY/WX    TMP DP  RH WIND       PRES   REMARKS
MARTINSBURG    CLOUDY    53  43  68 CALM      30.07F
PETERSBURG       N/A     56  45  66 CALM      30.04F
$$




USA.gov is the U.S. government's official web portal to all federal, state and local government web resources and services.